{"data":{"norad_id":67626,"intl_designator":"2026-020K","name":"STARLINK-36436","alt_names":[],"object_type":"PAYLOAD","status":"ACTIVE","operator":null,"country":"US","launch_date":"2026-01-30","launch_site_code":"AFETR","launch_vehicle":null,"mission":null,"orbit_class":"UNKNOWN","rcs_meters":null,"size_class":null,"mass_kg":null,"dimensions":null,"purposes":["comms"],"wikipedia_slug":null,"has_3d_model":false,"image_url":null,"decayed_at":null,"tle_current":{"epoch":"2026-05-25T04:10:11.146368Z","epoch_age_seconds":60064,"freshness":"FRESH","line1":"1 67626U 26020K   26145.17374012  .00015332  00000+0  56518-3 0  9991","line2":"2 67626  43.0052  67.5908 0001306 267.4003  92.6700 15.27600054 17811","mean_motion":15.27600054,"eccentricity":0.0001306,"inclination_deg":43.0052,"raan_deg":67.5908,"arg_perigee_deg":267.4003,"mean_anomaly_deg":92.67,"bstar":0.00056518,"rev_number":1781,"period_min":94.265511200355,"perigee_km":482.09298474435,"apogee_km":483.88511086803,"semimajor_km":6861.1260478062,"source":"CELESTRAK","updated_at":"2026-05-25T13:38:21.651013Z"}}}